עמוד ראשי
METAR-TAF:

METAR-TAF

שדות תעופה :

RAF

Tain, סקוטלנד

קו רוחב: 57-49N, קו אורך: 003-58W, גובה: 4מטר

תצפית מזג אוויר נוכחית

הדו"ח נערך לפני 43דקות, בשעה 21:20 UTC
רוח 9קשר מכיוון צפון-מזרח
טמפרטורת 11 צלסיוס
לחות 76%
לחץ 1015 hPa
ראות 10 קילומטר או יותר

METAR: EGQA 202120Z AUTO 05009KT 9999 NCD 11/07 Q1015

זמן: 23:03 (22:03 UTC)


TAF: חסר

תצפיות ותחזיות מזג אוויר לגבי יותר מ- 4,000 שדות תעופה ברחבי העולם. דוחות METAR ו- TAF.

התחנות הזמינות מסומנות בנקודות צהובות ואדומות על גבי המפה.

העבר את העכבר לנקודה הצבעונית על מנת לראות את שם התחנה.

לאחר מכן, לחץ כדי לראות את תוכן ואת תחזיות מזג האוויר.

כדי לשנות את המפה: לחץ על הכפתורים הירוקים עם הפלוס השחור כדי להתקרב; על הכפתור הירוק עם המקף כדי להתרחק; או בחיצים הירוקים למפות סמוכות.


METAR-TAF: